Regional Weather Roundup
Issued by NWS

Home | Current Version | Previous Version | Graphics & Text | Print | Product List | Glossary On
Versions: 1 2 3 4 5 6 7 8 9 10 11 12 13 14 15 16 17 18 19 20 21 22 23 24 25 26 27 28 29 30 31 32 33 34 35 36 37 38 39 40 41 42 43 44 45 46 47 48 49 50
000
ASUS43 KLMK 270510
RWRKY
KENTUCKY REGIONAL WEATHER ROUNDUP
NATIONAL WEATHER SERVICE LOUISVILLE KY
100 AM EDT MON APR 27 2015

NOTE "FAIR" INDICATES FEW OR NO CLOUDS BELOW 12,000 FEET
WITH NO SIGNIFICANT WEATHER AND/OR OBSTRUCTIONS TO VISIBILITY.

KYZ001>023-026-027-061>063-070>075-270600-
WESTERN AND SOUTH CENTRAL KENTUCKY

CITY           SKY/WX    TMP DP  RH WIND       PRES   REMARKS
PADUCAH        CLEAR     50  38  63 N9        29.95S
HENDERSON      CLEAR     50  37  62 N6        29.97R
OWENSBORO      CLEAR     52  38  58 N5        29.97R
HOPKINSVILLE   CLEAR     51  38  62 N10       29.92S
BOWLING GREEN  CLEAR     50  36  58 CALM      29.93R
GLASGOW        CLEAR     50  37  59 NE5       29.91S
$$

KYZ024-025-028>034-038-045-046-053-270600-
NORTH CENTRAL KENTUCKY

CITY           SKY/WX    TMP DP  RH WIND       PRES   REMARKS
LOUISVILLE/SDF CLEAR     49  36  61 N6        29.94R
LOUISVILLE/LOU CLEAR     49  36  61 N3        29.94R
FORT KNOX      CLEAR     43  37  79 NW5       29.92R
$$

KYZ035>037-039>044-047>052-055>060-089>105-270600-
NORTHEAST KENTUCKY

CITY           SKY/WX    TMP DP  RH WIND       PRES   REMARKS
LEXINGTON      CLEAR     45  35  68 N6        29.91R
COVINGTON      CLEAR     45  34  65 N3        29.92R
FRANKFORT      CLEAR     45  34  65 NW3       29.91R
$$

KYZ054-064>069-076>088-106>120-270600-
SOUTHEAST KENTUCKY

CITY           SKY/WX    TMP DP  RH WIND       PRES   REMARKS
JACKSON        CLEAR     49  32  52 VRB5      29.87R
LONDON         CLEAR     44  37  76 CALM      29.88R
SOMERSET       CLEAR     46  36  66 N5        29.91S
MIDDLESBORO    MOCLDY    43  43 100 CALM      29.88S FOG
MONTICELLO     CLEAR     42  42 100 CALM      29.93R
$$




USA.gov is the U.S. government's official web portal to all federal, state and local government web resources and services.